When you browse on this site, cookies collect data to enhance your experience and personalize the content and advertising you see.
Visit our Privacy Policy to learn more. By continuing to use the site, you agree to this use of cookies and data.
  • In Austria
  • List of Countries
  • For 7 days
  • Water Temperature
  • Weather Map
  • News
  • Weather Widgets
  • user-avatar
    Login

    Hourly Weather Rochechouart

    Today, 18 August, Sunday

    Time Temperature Precipitation Wind Pressure Humidity
    00:00 +19°C° 0 mm 1 mps 736 mmHg 98%
    01:00 +19°C° 0 mm 1 mps 736 mmHg 97%
    02:00 +19°C° 0 mm 1 mps 736 mmHg 97%
    03:00 +19°C° 0 mm 1 mps 735 mmHg 97%
    04:00 +19°C° 0 mm 1 mps 735 mmHg 96%
    05:00 +19°C° 0 mm 1 mps 735 mmHg 96%
    06:00 +19°C° 0 mm 1 mps 735 mmHg 95%
    07:00 +21°C° 0 mm 1 mps 736 mmHg 86%
    08:00 +23°C° 0 mm 2 mps 737 mmHg 78%
    09:00 +25°C° 0 mm 2 mps 737 mmHg 69%
    10:00 +25°C° 0.4 mm 3 mps 737 mmHg 72%
    11:00 +25°C° 0.4 mm 3 mps 737 mmHg 74%
    12:00 +25°C° 0.4 mm 3 mps 738 mmHg 77%
    13:00 +25°C° 0.4 mm 3 mps 738 mmHg 77%
    14:00 +25°C° 0.4 mm 3 mps 738 mmHg 76%
    15:00 +24°C° 0.4 mm 3 mps 738 mmHg 76%
    16:00 +22°C° 0 mm 3 mps 738 mmHg 75%
    17:00 +21°C° 0 mm 2 mps 739 mmHg 74%
    18:00 +20°C° 0 mm 2 mps 739 mmHg 74%
    19:00 +19°C° 0 mm 2 mps 740 mmHg 75%
    20:00 +18°C° 0 mm 2 mps 740 mmHg 76%
    21:00 +17°C° 0 mm 2 mps 741 mmHg 77%
    22:00 +15°C° 0 mm 1 mps 741 mmHg 82%
    23:00 +14°C° 0 mm 1 mps 741 mmHg 87%

    Tomorrow, 19 August, Monday

    Time Temperature Precipitation Wind Pressure Humidity
    00:00 +12°C° 0 mm 1 mps 741 mmHg 91%
    01:00 +11°C° 0 mm 0 mps 741 mmHg 93%
    02:00 +10°C° 0 mm 0 mps 741 mmHg 95%
    03:00 +9°C° 0 mm 0 mps 742 mmHg 97%
    04:00 +10°C° 0 mm 0 mps 742 mmHg 95%
    05:00 +10°C° 0 mm 0 mps 742 mmHg 94%
    06:00 +10°C° 0 mm 0 mps 742 mmHg 93%
    07:00 +13°C° 0 mm 0 mps 742 mmHg 79%
    08:00 +16°C° 0 mm 1 mps 743 mmHg 66%
    09:00 +20°C° 0 mm 1 mps 743 mmHg 53%
    10:00 +22°C° 0 mm 1 mps 743 mmHg 47%
    11:00 +23°C° 0 mm 1 mps 743 mmHg 42%
    12:00 +24°C° 0 mm 1 mps 743 mmHg 36%
    13:00 +25°C° 0 mm 1 mps 743 mmHg 36%
    14:00 +25°C° 0 mm 2 mps 743 mmHg 35%
    15:00 +25°C° 0 mm 2 mps 743 mmHg 35%
    16:00 +24°C° 0 mm 2 mps 743 mmHg 41%
    17:00 +23°C° 0 mm 2 mps 743 mmHg 47%
    18:00 +22°C° 0 mm 1 mps 743 mmHg 53%
    19:00 +20°C° 0 mm 1 mps 743 mmHg 60%
    20:00 +18°C° 0 mm 1 mps 743 mmHg 67%
    21:00 +15°C° 0 mm 1 mps 743 mmHg 74%
    22:00 +14°C° 0 mm 1 mps 743 mmHg 76%
    23:00 +14°C° 0 mm 1 mps 743 mmHg 78%

    Day after tomorrow, 20 August, Tuesday

    Time Temperature Precipitation Wind Pressure Humidity
    00:00 +13°C° 0 mm 1 mps 744 mmHg 80%
    01:00 +13°C° 0 mm 1 mps 744 mmHg 80%
    02:00 +13°C° 0 mm 1 mps 744 mmHg 80%
    03:00 +13°C° 0 mm 1 mps 744 mmHg 81%
    04:00 +13°C° 0 mm 1 mps 744 mmHg 80%
    05:00 +13°C° 0 mm 1 mps 744 mmHg 78%
    06:00 +14°C° 0 mm 1 mps 744 mmHg 77%
    07:00 +16°C° 0 mm 1 mps 745 mmHg 70%
    08:00 +19°C° 0 mm 1 mps 745 mmHg 62%
    09:00 +20°C° 0 mm 2 mps 746 mmHg 55%
    10:00 +21°C° 0 mm 2 mps 746 mmHg 50%
    11:00 +23°C° 0 mm 2 mps 746 mmHg 45%
    12:00 +25°C° 0 mm 2 mps 746 mmHg 40%
    13:00 +25°C° 0 mm 2 mps 746 mmHg 38%
    14:00 +26°C° 0 mm 2 mps 746 mmHg 36%
    15:00 +26°C° 0 mm 2 mps 746 mmHg 35%
    16:00 +25°C° 0 mm 2 mps 746 mmHg 39%
    17:00 +24°C° 0 mm 2 mps 746 mmHg 44%
    18:00 +23°C° 0 mm 2 mps 746 mmHg 49%
    19:00 +20°C° 0 mm 2 mps 746 mmHg 54%
    20:00 +18°C° 0 mm 2 mps 746 mmHg 60%
    21:00 +16°C° 0 mm 2 mps 747 mmHg 66%
    22:00 +15°C° 0 mm 2 mps 747 mmHg 70%
    23:00 +14°C° 0 mm 1 mps 746 mmHg 74%

    21 August, Wednesday

    Time Temperature Precipitation Wind Pressure Humidity
    00:00 +14°C° 0 mm 1 mps 746 mmHg 78%
    01:00 +13°C° 0 mm 1 mps 746 mmHg 80%
    02:00 +13°C° 0 mm 1 mps 746 mmHg 82%
    03:00 +12°C° 0 mm 1 mps 746 mmHg 84%
    04:00 +13°C° 0 mm 1 mps 746 mmHg 83%
    05:00 +13°C° 0 mm 1 mps 746 mmHg 82%
    06:00 +13°C° 0 mm 1 mps 746 mmHg 81%
    07:00 +16°C° 0 mm 1 mps 746 mmHg 70%
    08:00 +18°C° 0 mm 2 mps 746 mmHg 59%
    09:00 +21°C° 0 mm 2 mps 746 mmHg 48%
    10:00 +23°C° 0 mm 2 mps 746 mmHg 45%
    11:00 +24°C° 0 mm 2 mps 746 mmHg 41%
    12:00 +25°C° 0 mm 2 mps 746 mmHg 38%
    13:00 +25°C° 0 mm 2 mps 745 mmHg 37%
    14:00 +26°C° 0 mm 2 mps 745 mmHg 36%
    15:00 +26°C° 0 mm 2 mps 745 mmHg 34%
    16:00 +25°C° 0 mm 2 mps 744 mmHg 39%
    17:00 +24°C° 0 mm 2 mps 744 mmHg 43%
    18:00 +23°C° 0 mm 2 mps 744 mmHg 48%
    19:00 +20°C° 0 mm 2 mps 744 mmHg 52%
    20:00 +18°C° 0 mm 2 mps 745 mmHg 55%
    21:00 +16°C° 0 mm 2 mps 745 mmHg 59%
    22:00 +16°C° 0 mm 2 mps 745 mmHg 61%
    23:00 +15°C° 0 mm 2 mps 745 mmHg 63%

    22 August, Thursday

    Time Temperature Precipitation Wind Pressure Humidity
    00:00 +14°C° 0 mm 2 mps 745 mmHg 65%
    01:00 +14°C° 0 mm 1 mps 745 mmHg 69%
    02:00 +13°C° 0 mm 1 mps 745 mmHg 73%
    03:00 +13°C° 0 mm 1 mps 745 mmHg 78%
    04:00 +13°C° 0 mm 1 mps 745 mmHg 78%
    05:00 +13°C° 0 mm 1 mps 745 mmHg 79%
    06:00 +13°C° 0 mm 2 mps 745 mmHg 80%
    07:00 +16°C° 0 mm 2 mps 746 mmHg 70%
    08:00 +19°C° 0 mm 2 mps 746 mmHg 60%
    09:00 +22°C° 0 mm 3 mps 746 mmHg 50%
    10:00 +25°C° 0 mm 3 mps 746 mmHg 45%
    11:00 +26°C° 0 mm 3 mps 745 mmHg 40%
    12:00 +28°C° 0 mm 3 mps 745 mmHg 36%
    13:00 +29°C° 0 mm 3 mps 745 mmHg 34%
    14:00 +29°C° 0 mm 3 mps 744 mmHg 32%
    15:00 +30°C° 0 mm 2 mps 744 mmHg 30%
    16:00 +28°C° 0 mm 2 mps 744 mmHg 34%
    17:00 +27°C° 0 mm 2 mps 744 mmHg 38%
    18:00 +25°C° 0 mm 2 mps 743 mmHg 43%
    19:00 +24°C° 0 mm 2 mps 743 mmHg 46%
    20:00 +21°C° 0 mm 2 mps 744 mmHg 49%
    21:00 +19°C° 0 mm 2 mps 744 mmHg 52%
    22:00 +18°C° 0 mm 2 mps 744 mmHg 56%
    23:00 +17°C° 0 mm 2 mps 743 mmHg 60%

    23 August, Friday

    Time Temperature Precipitation Wind Pressure Humidity
    00:00 +17°C° 0 mm 2 mps 743 mmHg 64%
    01:00 +16°C° 0 mm 2 mps 743 mmHg 68%
    02:00 +15°C° 0 mm 2 mps 743 mmHg 73%
    03:00 +15°C° 0 mm 2 mps 742 mmHg 78%
    04:00 +15°C° 0 mm 1 mps 742 mmHg 77%
    05:00 +15°C° 0 mm 1 mps 742 mmHg 76%
    06:00 +15°C° 0 mm 1 mps 742 mmHg 75%
    07:00 +20°C° 0 mm 1 mps 742 mmHg 64%
    08:00 +23°C° 0 mm 1 mps 742 mmHg 52%
    09:00 +27°C° 0 mm 1 mps 742 mmHg 41%
    10:00 +29°C° 0 mm 1 mps 742 mmHg 35%
    11:00 +31°C° 0 mm 1 mps 742 mmHg 30%
    12:00 +34°C° 0 mm 1 mps 741 mmHg 24%
    13:00 +34°C° 0 mm 1 mps 741 mmHg 23%
    14:00 +34°C° 0 mm 1 mps 740 mmHg 22%
    15:00 +34°C° 0 mm 1 mps 740 mmHg 21%
    16:00 +32°C° 0 mm 1 mps 740 mmHg 28%
    17:00 +27°C° 0 mm 0 mps 739 mmHg 34%
    18:00 +25°C° 0 mm 0 mps 739 mmHg 41%
    19:00 +23°C° 0 mm 0 mps 739 mmHg 43%
    20:00 +24°C° 0 mm 1 mps 739 mmHg 45%
    21:00 +22°C° 0 mm 1 mps 739 mmHg 47%
    22:00 +22°C° 0 mm 1 mps 739 mmHg 49%
    23:00 +21°C° 0 mm 1 mps 739 mmHg 51%
    Show more